User: anonymous   Login
Location: Sundre
(51.7972°N, 114.6405°W)
Time: 12:32:24
(UTC-07:00)
Language:

YUBILEINY - Orbit

View from above orbital plane
View from above orbital plane
View from above satellite
View from above satellite

Ground track
Ground track

The orbit data is extracted from the following two-line orbital elements,

1 32953U 08025A   20023.39962061  .00000037  00000-0  19437-3 0  9997
2 32953  82.5038   8.7427 0019783  15.9487 344.2212 12.43093854529485
Epoch (UTC): 23 January 2020 09:35:27
Eccentricity: 0.0019783
inclination: 82.5038°
perigee height: 1478 km
apogee height: 1509 km
right ascension of ascending node: 8.7427°
argument of perigee: 15.9487°
revolutions per day: 12.43093854
mean anomaly at epoch: 344.2212°
orbit number at epoch: 52948

The dashed part of the orbit path shows where the satellite is in the earth's shadow,  

DLR